This is the latest recevied weather packets stored in our database for station/object DC0VZ-6. If no packets are shown the sender has not sent any weather packets the latest 10 day(s).
| Time | Temp. | Humidity | Pressure | Rain* | Wind** | Luminosity | Snow |
|---|---|---|---|---|---|---|---|
| 1777987569 | 17.78° C | 47% | 976.4 hPa | 0 mm | - | - | - |
| 1777986974 | 17.22° C | 47% | 976.7 hPa | 0 mm | - | - | - |
| 1777986374 | 16.67° C | 48% | 976.7 hPa | 0 mm | - | - | - |
| 1777985774 | 17.22° C | 47% | 976.9 hPa | 0 mm | - | - | - |
| 1777985174 | 17.22° C | 47% | 976.9 hPa | 0 mm | - | - | - |
| 1777984574 | 17.78° C | 47% | 976.9 hPa | 0 mm | - | - | - |
| 1777983974 | 17.78° C | 48% | 976.9 hPa | 0 mm | - | - | - |
| 1777983374 | 17.22° C | 48% | 977 hPa | 0 mm | - | - | - |
| 1777982773 | 17.78° C | 47% | 977 hPa | 0 mm | - | - | - |
| 1777982173 | 17.22° C | 48% | 977.1 hPa | 0 mm | - | - | - |
| 1777981573 | 17.78° C | 48% | 977.1 hPa | 0 mm | - | - | - |
| 1777980973 | 17.78° C | 48% | 976.9 hPa | 0 mm | - | - | - |
| 1777980373 | 17.78° C | 48% | 976.9 hPa | 0 mm | - | - | - |
| 1777979773 | 18.33° C | 48% | 977.2 hPa | 0 mm | - | - | - |
| 1777979173 | 17.78° C | 48% | 977.2 hPa | 0 mm | - | - | - |
| 1777978573 | 16.67° C | 48% | 977.1 hPa | 0 mm | - | - | - |
| 1777977973 | 17.22° C | 47% | 977.1 hPa | 0 mm | - | - | - |
| 1777977373 | 16.67° C | 48% | 977.4 hPa | 0 mm | - | - | - |
| 1777976173 | 16.67° C | 48% | 977.3 hPa | 0 mm | - | - | - |
| 1777975573 | 17.22° C | 48% | 977.3 hPa | 0 mm | - | - | - |
| 1777974972 | 17.22° C | 48% | 977.4 hPa | 0 mm | - | - | - |
| 1777974372 | 16.67° C | 48% | 977.4 hPa | 0 mm | - | - | - |
| 1777973772 | 16.67° C | 48% | 977.6 hPa | 0 mm | - | - | - |
| 1777973172 | 16.67° C | 49% | 977.6 hPa | 0 mm | - | - | - |
| 1777972572 | 16.67° C | 49% | 977.4 hPa | 0 mm | - | - | - |
* Rain latest hour (hover to see other rain measurements)
** Current wind speed in m/s (hover to see current wind gust speed)